sat.trackr.live / text

‹ back to catalog

YAM-15

NORAD 68997 · 2026-100T

PAYLOAD ACTIVE UNKNOWN

§ Identity

Operator
Country
US
Launch date
2026-05-03
Launch site
AFWTR
Launch vehicle
Mass (kg)
RCS (m²)

External: N2YO · Heavens-Above · Gunter

§ Orbital elements

Epoch: 2026-05-25T03:14:27.780864Z

Period
96.53 min
Inclination
97.7388°
Eccentricity
0.0001959
Mean motion
14.91769350 rev/d
Perigee alt
591.1 km
Apogee alt
593.8 km
Semi-major
6,970.6 km
B*
1.5248e-4
RAAN
43.0164°
Arg perigee
180.4880°
Mean anomaly
179.6337°
Rev number
326

§ Raw data

YAM-151 68997U 26100T   26145.13504376  .00001481  00000+0  15248-3 0  99912 68997  97.7388  43.0164 0001959 180.4880 179.6337 14.91769350  3266

JSON: /api/v1/satellites/68997 · /tle

For live sub-satellite position, see the globe view (requires WebGL).

§ Visibility from observer

Set your observer location to see the next 7 days of passes ≥ 10°. The values pass through the URL so the page stays shareable.

No JS? Fill the form by hand. The geolocation button needs JavaScript.